Location: Saint-Palais-sur-Mer
(45.6429°N, 1.0859°W)
Time: 00:55:01
(UTC+01:00)

Tiros 1 despin weight - Pass Details

Date: 15 February 2026
Orbit: 556 x 593 km, 48.2° (Epoch: 13 March)

Event Time Altitude Azimuth Distance (km) Brightness Sun altitude
Rises 16:18:34 0° 208° (SSW) 2,729 ? 19.1°
Reaches altitude 10° 16:21:09 10° 194° (SSW) 1,833 ? 18.8°
Maximum altitude 16:24:28 23° 141° (SE) 1,207 ? 18.3°
Drops below altitude 10° 16:27:47 10° 89° (E) 1,836 ? 17.9°
Sets 16:30:22 0° 75° (ENE) 2,734 ? 17.6°
